Toccoa Rg Letourneau Field, T, GA

12:41 PM EDT on May 27, 2017 (GMT -0400)
Toccoa-Letourneau

Weather History for KTOC - November, 2013

Change the Weather History Date:

Sunday, November 10, 2013

  Actual Average Record
Temperature  
Mean Temperature 62 °F -  
Max Temperature 77 °F 63 °F 73 °F (2015)
Min Temperature 46 °F 43 °F 38 °F (2014)
Degree Days  
Heating Degree Days 4    
Growing Degree Days 12 (Base 50)    
Moisture  
Dew Point 32 °F    
Average Humidity 36    
Maximum Humidity 69    
Minimum Humidity 18    
Precipitation  
Precipitation 0.00 in - - ()
Sea Level Pressure  
Sea Level Pressure 30.20 in    
Wind  
Wind Speed 5 mph ()    
Max Wind Speed 9 mph    
Max Gust Speed -    
Visibility 10.0 miles    
Events      
Averages and records for this station are not official NWS values.
T = Trace of Precipitation, MM = Missing Value Source: Averaged Metar Reports

Daily Weather History Graph

Daily Weather History Graph

Search for Another Location

Airport or City:

Trip Planner

Search our weather history database for the weather conditions in past years. The results will help you decide how hot, cold, wet, or windy it might be!

Date:

Astronomy

Nov. 10, 2013 Rise Set
Actual Time 7:02 AM EST 5:31 PM EST
Civil Twilight 6:35 AM EST 5:58 PM EST
Nautical Twilight 6:05 AM EST 6:28 PM EST
Astronomical Twilight 5:35 AM EST 6:57 PM EST
Moon 1:20 PM EST (11/10) No Moon Set
Length of Visible Light 11h 22m
Length of Day
10h 29m
First Quarter, 55% of the Moon is Illuminated
Nov 10
First Quarter
Nov 17
Full
Nov 25
Last Quarter
Dec 2
New
Dec 9
First Quarter

Hourly Weather History & Observations

Time (EST) Temp. Dew Point Humidity Pressure Visibility Wind Dir Wind Speed Gust Speed Precip Events Conditions
12:15 AM 50.4 °F 35.4 °F 57% 30.24 in 10.0 mi West 5.8 mph - N/A   Clear
12:35 AM 50.4 °F 35.6 °F 57% 30.23 in 10.0 mi West 5.8 mph - N/A   Scattered Clouds
12:55 AM 47.3 °F 37.8 °F 69% 30.22 in 10.0 mi WSW 5.8 mph - N/A   Scattered Clouds
1:15 AM 47.8 °F 37.6 °F 68% 30.22 in 10.0 mi WSW 3.5 mph - N/A   Mostly Cloudy
1:35 AM 48.6 °F 37.2 °F 65% 30.21 in 10.0 mi WSW 9.2 mph - N/A   Scattered Clouds
1:55 AM 49.5 °F 36.1 °F 60% 30.21 in 10.0 mi SW 5.8 mph - N/A   Clear
2:15 AM 50.7 °F 34.9 °F 55% 30.21 in 10.0 mi WSW 8.1 mph - N/A   Scattered Clouds
2:35 AM 49.8 °F 35.2 °F 57% 30.21 in 10.0 mi WSW 9.2 mph - N/A   Scattered Clouds
2:55 AM 49.1 °F 35.2 °F 59% 30.21 in 10.0 mi West 5.8 mph - N/A   Clear
3:15 AM 48.9 °F 35.1 °F 59% 30.21 in 10.0 mi WSW 6.9 mph - N/A   Clear
3:35 AM 50.0 °F 34.2 °F 55% 30.21 in 10.0 mi WSW 3.5 mph - N/A   Clear
3:55 AM 48.2 °F 35.6 °F 62% 30.21 in 10.0 mi WSW 3.5 mph - N/A   Clear
4:15 AM 46.8 °F 35.6 °F 65% 30.21 in 10.0 mi WSW 4.6 mph - N/A   Scattered Clouds
4:35 AM 48.7 °F 34.2 °F 57% 30.20 in 10.0 mi West 4.6 mph - N/A   Scattered Clouds
4:55 AM 50.9 °F 31.8 °F 48% 30.20 in 10.0 mi West 4.6 mph - N/A   Scattered Clouds
5:15 AM 50.9 °F 32.0 °F 48% 30.21 in 10.0 mi NW 3.5 mph - N/A   Scattered Clouds
5:35 AM 51.4 °F 32.0 °F 47% 30.21 in 10.0 mi WNW 4.6 mph - N/A   Mostly Cloudy
5:55 AM 52.7 °F 31.6 °F 45% 30.21 in 10.0 mi NNW 6.9 mph - N/A   Overcast
6:15 AM 52.7 °F 30.7 °F 43% 30.21 in 10.0 mi WNW 5.8 mph - N/A   Scattered Clouds
6:35 AM 52.5 °F 31.1 °F 44% 30.21 in 10.0 mi West 4.6 mph - N/A   Scattered Clouds
6:55 AM 52.0 °F 32.0 °F 47% 30.21 in 10.0 mi West 3.5 mph - N/A   Overcast
7:15 AM 52.0 °F 31.8 °F 46% 30.22 in 10.0 mi NW 4.6 mph - N/A   Mostly Cloudy
7:35 AM 54.1 °F 29.1 °F 38% 30.22 in 10.0 mi NW 8.1 mph - N/A   Scattered Clouds
7:55 AM 56.7 °F 27.9 °F 33% 30.23 in 10.0 mi NNW 5.8 mph - N/A   Mostly Cloudy
8:15 AM 57.6 °F 28.2 °F 33% 30.24 in 10.0 mi NNW 5.8 mph - N/A   Mostly Cloudy
8:35 AM 59.5 °F 28.9 °F 31% 30.24 in 10.0 mi NW 4.6 mph - N/A   Scattered Clouds
8:55 AM 61.7 °F 29.3 °F 29% 30.25 in 10.0 mi NW 3.5 mph - N/A   Clear
9:15 AM 62.8 °F 29.3 °F 28% 30.25 in 10.0 mi NNW 3.5 mph - N/A   Clear
9:35 AM 64.4 °F 30.2 °F 28% 30.25 in 10.0 mi Calm Calm - N/A   Clear
9:55 AM 65.8 °F 30.7 °F 27% 30.24 in 10.0 mi Calm Calm - N/A   Clear
10:15 AM 66.4 °F 31.6 °F 27% 30.23 in 10.0 mi NNE 6.9 mph - N/A   Clear
10:35 AM 67.3 °F 32.4 °F 27% 30.24 in 10.0 mi Calm Calm - N/A   Scattered Clouds
10:55 AM 68.2 °F 32.5 °F 27% 30.24 in 10.0 mi Calm Calm - N/A   Scattered Clouds
11:15 AM 70.0 °F 33.4 °F 26% 30.23 in 10.0 mi Calm Calm - N/A   Clear
11:35 AM 71.1 °F 33.3 °F 25% 30.23 in 10.0 mi NNW 3.5 mph - N/A   Clear
11:55 AM 72.3 °F 32.2 °F 23% 30.22 in 10.0 mi NNW 6.9 mph - N/A   Clear
12:15 PM 72.9 °F 32.7 °F 23% 30.21 in 10.0 mi NNW 4.6 mph - N/A   Clear
12:35 PM 73.6 °F 33.1 °F 23% 30.20 in 10.0 mi NW 5.8 mph - N/A   Clear
12:55 PM 74.5 °F 32.9 °F 22% 30.19 in 10.0 mi Calm Calm - N/A   Scattered Clouds
1:15 PM 75.0 °F 32.5 °F 21% 30.18 in 10.0 mi NE 5.8 mph - N/A   Scattered Clouds
1:35 PM 74.5 °F 32.4 °F 21% 30.17 in 10.0 mi West 3.5 mph - N/A   Scattered Clouds
1:55 PM 76.5 °F 33.8 °F 21% 30.16 in 10.0 mi Calm Calm - N/A   Clear
2:15 PM 77.0 °F 33.6 °F 21% 30.16 in 10.0 mi Calm Calm - N/A   Clear
2:35 PM 77.7 °F 33.3 °F 20% 30.15 in 10.0 mi Calm Calm - N/A   Clear
2:55 PM 77.9 °F 32.5 °F 19% 30.14 in 10.0 mi NNE 4.6 mph - N/A   Clear
3:15 PM 76.6 °F 30.7 °F 19% 30.14 in 10.0 mi Calm Calm - N/A   Clear
3:35 PM 76.6 °F 29.7 °F 18% 30.14 in 10.0 mi NW 4.6 mph - N/A   Clear
3:55 PM 75.6 °F 31.1 °F 20% 30.15 in 10.0 mi NW 9.2 mph - N/A   Clear
4:15 PM 74.8 °F 30.9 °F 20% 30.15 in 10.0 mi NW 6.9 mph - N/A   Clear
4:35 PM 74.3 °F 30.6 °F 20% 30.16 in 10.0 mi NW 6.9 mph - N/A   Clear
4:55 PM 72.7 °F 30.2 °F 21% 30.16 in 10.0 mi NW 8.1 mph - N/A   Clear
5:15 PM 71.4 °F 28.9 °F 21% 30.17 in 10.0 mi NNW 5.8 mph - N/A   Clear
5:35 PM 70.0 °F 27.9 °F 21% 30.17 in 10.0 mi NW 4.6 mph - N/A   Clear
5:55 PM 68.4 °F 27.1 °F 21% 30.18 in 10.0 mi NW 4.6 mph - N/A   Clear
6:15 PM 68.0 °F 26.4 °F 21% 30.18 in 10.0 mi NW 5.8 mph - N/A   Clear
6:35 PM 66.6 °F 26.6 °F 22% 30.19 in 10.0 mi NW 4.6 mph - N/A   Clear
6:55 PM 65.5 °F 27.0 °F 23% 30.20 in 10.0 mi NNW 3.5 mph - N/A   Clear
7:15 PM 62.4 °F 28.0 °F 27% 30.20 in 10.0 mi North 4.6 mph - N/A   Clear
7:35 PM 61.5 °F 29.1 °F 29% 30.20 in 10.0 mi NNW 4.6 mph - N/A   Clear
7:55 PM 62.1 °F 28.6 °F 28% 30.20 in 10.0 mi NW 4.6 mph - N/A   Clear
8:15 PM 61.3 °F 29.1 °F 30% 30.20 in 10.0 mi NW 4.6 mph - N/A   Clear
8:35 PM 60.4 °F 29.8 °F 31% 30.20 in 10.0 mi NW 6.9 mph - N/A   Clear
8:55 PM 59.5 °F 30.7 °F 34% 30.20 in 10.0 mi NNW 3.5 mph - N/A   Clear
9:15 PM 59.4 °F 30.9 °F 34% 30.21 in 10.0 mi North 5.8 mph - N/A   Clear
9:35 PM 60.3 °F 32.0 °F 34% 30.21 in 10.0 mi North 4.6 mph - N/A   Clear
9:55 PM 60.1 °F 32.4 °F 35% 30.21 in 10.0 mi NNW 3.5 mph - N/A   Clear
10:15 PM 58.3 °F 32.7 °F 38% 30.21 in 10.0 mi Calm Calm - N/A   Clear
10:35 PM 59.0 °F 33.1 °F 38% 30.21 in 10.0 mi NNW 5.8 mph - N/A   Clear
10:55 PM 58.3 °F 34.0 °F 40% 30.21 in 10.0 mi NNW 6.9 mph - N/A   Clear
11:15 PM 58.6 °F 34.0 °F 40% 30.21 in 10.0 mi NNW 4.6 mph - N/A   Clear
11:35 PM 58.3 °F 34.2 °F 40% 30.20 in 10.0 mi North 5.8 mph - N/A   Clear
11:55 PM 57.9 °F 34.7 °F 42% 30.20 in 10.0 mi North 6.9 mph - N/A   Clear